Temp
24 22 21 21 21 21 21 22 22 21 21 21 21 21 21 21 21 21 22 22 22 22 22 21 21 22 22 22 22 21 21 21 21 21 21 21 21 21 21 22 23 23 20
25 23 21 21 21 21 21 22 22 22 22 21 21 21 21 21 21 21 21 21 21 22 22 22 22 22 22 21 22 22 21 21 21 21 21 21 21 21 21 21 22 21 21
25 23 22 21 21 21 21 21 21 22 21 21 21 21 21 21 21 21 21 21 21 21 21 22 22 22 21 21 21 22 21 21 21 21 22 26 23 21 21 20 21 20 21
26 25 23 21 21 21 21 21 21 21 21 21 21 21 21 21 21 21 21 21 21 21 21 21 21 21 21 21 21 21 21 21 21 23 25 25 25 21 20 20 20 21 21
26 26 23 21 21 21 21 21 21 21 21 21 21 21 21 21 21 21 21 21 21 21 21 21 21 21 21 21 21 21 21 22 22 23 24 25 26 22 20 22 21 21 21
27 27 22 21 21 21 21 21 21 21 21 21 21 21 22 22 21 21 21 21 22 21 21 21 21 21 21 21 21 21 21 22 22 24 24 24 25 23 20 21 21 22 22
27 26 23 21 21 21 21 21 21 21 21 21 21 21 21 21 21 21 21 21 21 21 21 21 21 21 21 21 21 21 21 22 24 23 24 24 24 22 21 20 20 21 22
27 26 24 21 21 21 21 21 21 21 21 21 21 21 21 22 21 21 21 21 21 21 21 21 21 21 21 21 21 21 21 22 23 23 23 25 23 21 21 20 21 21 20
27 27 25 24 22 21 21 21 21 21 21 21 21 21 21 21 21 21 21 22 22 21 21 21 21 21 21 22 21 21 21 22 23 24 24 23 23 22 21 20 21 21 20
27 27 26 26 24 24 23 21 21 21 21 21 21 22 22 21 21 21 22 21 21 21 21 21 21 21 21 21 21 21 21 22 23 24 24 24 23 22 21 20 21 21 20
26 27 27 27 26 24 24 23 21 22 21 21 22 22 22 22 22 22 22 22 21 21 21 21 21 21 21 21 21 21 21 24 25 25 25 23 22 22 21 20 21 21 20
27 27 26 26 26 25 25 24 23 24 23 22 22 23 22 22 22 22 22 22 23 22 22 21 21 21 21 23 22 22 23 25 25 25 25 23 23 22 21 21 20 21 20
27 27 26 25 25 25 25 24 25 25 24 23 22 22 21 22 22 22 22 23 22 22 22 23 24 24 25 25 22 24 24 25 25 26 26 23 22 22 21 21 21 21 21
28 27 27 26 25 25 25 25 24 24 25 24 22 22 22 23 22 22 22 23 23 24 24 23 24 24 24 24 24 23 23 24 25 26 26 24 22 22 22 21 21 21 21
29 27 27 26 24 24 24 24 23 23 23 25 24 23 22 22 22 23 23 23 23 24 24 24 24 24 24 24 24 25 23 22 22 23 24 24 23 22 22 20 21 20 20
29 28 27 26 25 24 24 24 23 24 25 24 23 23 22 23 23 23 24 24 24 24 24 24 24 23 22 25 25 24 23 22 21 21 22 24 23 22 22 22 21 20 20
29 28 27 26 26 24 24 23 23 23 24 24 23 22 22 22 23 22 22 22 24 23 22 23 23 23 23 22 24 24 22 21 21 21 21 21 22 22 23 22 22 21 21
29 28 27 27 27 26 25 24 24 25 24 25 24 22 22 21 22 21 21 21 23 23 22 23 22 23 24 23 24 24 23 21 22 22 21 21 21 23 23 23 22 22 22
29 29 27 27 26 26 24 25 24 25 24 25 24 22 22 23 22 21 20 21 21 22 22 22 23 21 22 22 22 23 22 21 21 22 22 21 22 22 24 23 23 22 22
30 28 27 27 26 25 25 24 25 25 25 25 24 23 20 21 22 22 21 21 21 22 22 21 23 22 21 23 22 23 22 21 21 21 21 22 22 22 24 24 24 22 23
30 29 28 27 26 25 24 25 26 25 24 23 23 21 21 21 22 21 21 21 22 22 23 21 21 20 21 22 21 24 23 22 21 21 22 22 22 22 24 24 24 25 24
31 29 28 27 26 25 25 24 25 25 25 24 23 22 23 23 20 20 20 22 22 22 22 22 21 21 21 22 21 21 23 24 21 21 22 21 21 21 21 22 23 24 24
32 30 29 27 26 25 25 24 23 23 23 23 23 23 22 21 22 21 21 21 22 22 22 21 21 21 22 21 21 20 21 23 20 22 21 21 21 22 21 22 22 23 22
33 32 30 28 26 25 24 25 24 26 26 26 24 23 22 22 22 21 21 21 22 22 22 21 21 21 21 21 20 21 20 20 20 21 21 22 22 22 22 22 23 23 21
33 32 31 28 26 25 24 25 24 24 25 23 22 21 21 21 21 21 21 20 21 22 22 21 21 21 20 21 21 21 20 20 18 19 20 21 20 21 22 23 22 22 21
34 32 31 27 24 24 23 23 23 23 23 22 21 21 21 20 20 22 22 21 21 21 22 22 21 21 21 20 20 21 21 21 21 19 21 22 20 21 21 22 24 22 22
Height
800 803 806 806 809 810 811 811 813 816 816 818 820 822 823 824 825 826 827 829 830 831 832 833 834 835 836 837 838 838 839 841 841 841 842 842 843 844 845 845 844 845 845
798 804 807 808 810 811 813 814 815 817 818 820 821 824 824 826 827 828 829 831 830 832 833 834 835 836 838 838 839 840 841 842 842 843 844 844 846 847 847 847 846 846 847
800 806 809 811 811 813 815 816 817 818 820 822 823 825 826 827 828 829 831 831 832 833 834 835 836 837 838 840 840 842 842 844 844 845 844 844 847 848 848 848 849 849 849
800 806 809 811 813 815 817 819 820 821 823 824 826 827 828 829 830 831 832 833 834 834 835 837 838 839 839 840 841 843 844 845 846 845 844 843 845 848 849 849 850 850 851
801 806 810 812 814 816 818 820 822 823 825 826 828 829 830 831 832 833 833 834 835 836 837 838 839 840 841 842 843 844 845 845 846 846 847 846 845 849 850 850 850 851 852
802 806 811 814 816 818 820 821 824 825 826 828 830 831 831 832 834 834 835 836 837 838 839 840 841 842 843 843 844 845 845 846 847 848 848 848 846 849 851 852 852 853 853
803 808 813 815 818 820 822 824 825 827 828 829 831 832 832 834 835 836 837 837 838 839 840 842 842 843 843 844 845 845 846 846 848 848 849 849 849 850 851 852 853 853 853
805 809 814 817 819 821 823 825 827 829 830 831 832 833 835 836 837 838 839 839 840 841 842 843 844 844 844 844 845 845 846 846 848 848 849 849 849 851 852 852 853 854 855
807 811 815 818 821 823 825 826 828 830 832 833 834 835 836 837 838 839 840 841 841 842 843 843 844 845 844 844 844 845 846 846 847 848 848 849 849 850 851 853 853 854 855
809 812 815 818 821 824 827 828 830 831 833 834 836 837 838 838 839 840 840 841 842 843 843 843 844 844 844 845 844 844 845 846 847 847 848 848 848 850 850 851 852 853 854
810 812 816 818 821 825 827 829 831 832 833 834 835 837 838 838 840 839 839 840 840 842 842 842 843 843 844 844 844 845 845 845 843 844 846 845 847 848 850 850 851 852 853
809 812 816 818 820 823 826 829 831 832 833 834 835 836 836 838 839 838 838 838 838 838 839 840 840 840 841 841 842 842 842 841 842 842 843 843 844 845 846 849 850 851 852
807 810 814 818 820 822 824 827 828 830 832 833 834 834 835 836 836 837 838 837 837 836 837 837 837 837 837 836 839 840 839 839 838 838 839 841 843 843 844 846 847 849 850
803 809 812 816 819 822 823 826 826 827 829 831 831 833 832 833 835 836 837 837 836 835 835 835 834 834 836 836 836 836 838 837 836 834 835 837 839 841 842 843 845 846 847
802 806 809 813 817 820 822 823 825 827 829 829 831 832 832 834 834 834 834 834 834 833 832 832 831 831 832 833 832 832 834 834 834 835 833 831 835 836 837 839 841 841 842
800 803 807 811 814 818 820 822 824 826 826 826 828 829 830 832 832 832 832 831 830 830 829 828 827 829 830 828 827 828 830 830 831 831 831 830 829 831 833 835 834 836 839
798 801 805 809 812 815 818 820 822 823 823 824 825 826 827 829 830 829 829 830 828 828 827 826 825 824 825 825 825 824 826 824 827 827 828 826 826 827 827 830 832 832 833
796 800 804 807 810 812 815 817 819 820 821 821 822 821 824 825 826 826 826 825 824 824 824 823 822 820 820 820 820 820 820 821 822 821 822 822 822 822 821 823 826 826 827
793 798 802 804 807 810 813 815 816 817 819 819 819 818 818 821 822 821 821 821 821 821 820 820 819 819 817 816 816 815 815 813 817 816 817 817 817 818 816 816 818 821 822
790 794 798 801 805 808 810 811 813 814 815 817 817 817 817 816 811 816 816 815 816 816 815 815 814 814 814 811 811 809 809 808 809 810 810 811 812 812 811 812 814 815 817
786 790 794 797 800 803 805 808 810 810 811 811 811 811 811 810 809 808 808 809 811 811 811 812 811 812 810 810 809 804 803 802 802 803 805 805 806 806 806 805 810 811 812
781 786 790 793 795 798 802 803 803 804 805 805 804 803 803 803 805 805 806 806 807 807 807 807 807 807 806 806 806 805 800 797 798 797 798 798 800 801 803 805 806 806 809
776 780 785 788 791 795 797 799 800 800 798 798 801 801 799 798 801 802 802 803 803 803 803 804 802 803 803 803 803 805 802 797 797 793 793 794 794 796 797 799 801 803 804
770 774 780 784 786 789 791 792 792 789 788 790 792 796 797 798 794 798 798 799 799 799 799 799 799 800 800 799 800 799 799 799 799 795 792 793 793 792 793 795 797 799 800
764 769 774 779 781 785 786 786 786 786 792 793 795 792 792 794 792 791 794 795 796 796 795 795 795 795 795 796 796 797 795 797 797 797 794 792 792 792 791 792 792 794 796
758 764 770 775 778 778 781 781 782 784 788 790 791 790 789 791 793 788 790 791 792 794 793 793 793 793 792 792 793 793 794 794 792 796 793 791 792 790 790 790 789 792 793
Wind_Speed
17 18 19 19 18 18 18 17 16 14 13 13 13 13 11 10 9 9 8 9 9 9 12 10 11 10 10 11 11 12 13 13 12 13 12 12 12 12 12 14 13 13 15
22 20 20 19 17 17 17 16 14 13 13 13 13 11 10 8 7 7 7 7 6 10 12 12 12 10 10 11 12 13 13 12 12 11 11 11 11 10 10 11 12 12 14
23 20 19 20 18 17 16 15 13 12 12 11 11 11 9 7 7 7 7 7 7 9 10 12 11 13 13 13 13 13 13 12 11 11 10 8 7 8 9 10 10 11 12
23 21 19 20 18 17 16 14 13 11 10 10 10 9 9 7 6 5 6 6 7 8 9 10 10 12 13 12 12 12 12 10 9 10 6 6 10 8 8 8 9 9 10
22 20 20 20 18 16 15 12 11 10 10 9 8 8 6 6 6 6 8 7 7 8 8 9 9 10 12 11 11 11 10 8 7 7 5 5 8 6 7 8 7 11 9
22 20 20 19 16 15 13 12 11 9 9 9 8 7 6 5 7 8 8 8 8 7 8 9 8 8 9 9 9 9 9 8 8 5 6 5 5 6 7 6 8 8 8
21 20 19 18 16 14 13 11 10 9 8 9 8 7 6 5 6 7 6 7 7 6 6 7 7 7 7 7 7 8 8 9 6 4 4 4 4 5 7 7 6 6 7
20 19 18 16 15 14 13 11 9 8 7 7 7 7 6 5 5 6 6 5 5 5 5 5 5 5 5 6 7 7 7 5 3 3 5 5 5 6 5 6 5 6 5
18 17 17 15 13 13 12 10 9 8 7 6 6 4 3 3 3 3 3 4 3 2 3 2 2 4 4 7 7 7 6 6 4 3 4 7 7 8 7 8 5 5 6
17 16 16 15 13 12 9 9 8 8 8 7 7 6 5 3 2 2 2 1 1 2 2 3 4 5 6 6 7 7 7 6 7 4 6 7 9 10 9 8 9 8 8
16 16 15 14 13 11 10 9 8 8 7 6 4 5 4 5 3 4 3 4 4 4 5 6 6 7 7 8 9 8 7 9 10 9 7 11 10 12 11 11 10 9 9
18 17 15 14 12 11 9 8 8 8 7 8 9 7 8 6 5 7 6 5 5 6 7 9 9 10 9 12 10 12 10 11 10 12 11 11 12 12 14 13 13 11 11
19 17 16 15 13 12 10 10 10 9 9 8 8 10 7 8 9 7 9 9 10 11 10 10 11 10 12 11 7 12 10 10 13 13 12 14 14 14 16 15 16 15 13
19 18 16 15 14 12 11 10 12 10 9 9 10 9 12 10 10 10 10 8 9 10 10 11 14 13 12 13 13 12 13 14 11 13 14 16 17 18 18 18 19 18 17
18 18 18 17 15 14 14 11 12 11 11 10 8 10 12 12 10 10 12 12 11 11 11 11 13 14 14 14 15 14 13 15 15 15 16 16 17 19 20 20 22 23 20
16 17 17 17 17 16 14 13 12 12 11 13 11 13 13 12 12 12 13 13 13 11 11 11 12 12 13 15 15 15 13 11 13 17 20 19 17 17 20 22 23 25 23
18 16 17 17 16 16 15 13 12 14 12 11 13 17 19 17 15 15 13 13 13 12 12 12 12 14 15 16 17 18 15 13 16 17 18 23 19 19 20 22 23 24 25
16 16 15 14 14 16 15 14 13 12 12 12 12 15 13 13 15 18 17 16 14 14 13 13 12 12 14 18 19 20 14 17 17 21 19 18 19 19 20 17 23 23 23
16 15 15 15 15 14 14 14 13 12 12 12 13 13 16 16 16 19 17 16 14 16 16 16 15 15 15 15 17 20 19 20 21 18 17 16 19 22 20 16 17 23 25
16 16 16 16 16 15 14 14 14 13 12 11 11 12 13 15 17 17 16 17 14 16 17 16 17 16 17 17 15 16 16 22 22 21 19 20 19 21 19 21 15 16 22
17 17 17 17 16 17 16 14 11 11 11 13 13 14 12 17 21 22 20 15 16 15 17 16 16 16 19 17 13 17 14 15 23 21 19 22 21 23 18 15 18 16 16
19 17 17 18 17 18 14 14 12 8 10 11 12 10 7 11 14 14 13 13 14 14 14 15 15 14 15 12 7 11 5 7 10 22 19 24 24 19 21 18 17 16 16
18 19 19 18 17 16 16 14 12 11 13 11 7 7 7 8 9 12 13 13 13 15 15 14 15 13 13 12 12 6 4 3 3 5 12 15 15 18 19 19 20 17 16
18 17 17 15 16 17 19 18 19 18 16 13 8 4 4 9 8 8 9 10 12 14 15 13 12 13 12 14 11 11 15 8 1 3 4 5 6 10 14 16 19 18 17
16 17 13 15 16 15 20 20 19 19 8 7 5 3 4 2 6 4 2 4 9 13 14 14 14 13 14 15 12 9 11 10 10 5 3 2 6 6 5 11 11 13 15
15 14 12 15 15 19 20 22 22 18 11 6 7 5 7 5 3 2 6 6 8 11 13 13 13 12 14 12 12 12 13 8 4 7 6 6 2 5 4 7 8 11 12
Wind_Direction
145 146 143 134 128 124 126 127 130 130 130 139 136 133 130 128 127 124 126 123 128 134 131 130 130 125 124 125 116 116 121 118 110 105 97 93 93 95 98 91 94 102 102
142 146 143 142 136 132 131 132 133 134 131 127 141 151 139 138 131 126 122 102 99 113 128 137 131 123 131 128 122 118 120 116 115 116 111 102 97 97 101 94 103 105 103
142 145 145 145 141 137 133 131 131 129 130 130 135 143 146 142 133 132 129 120 100 105 124 135 137 125 124 123 118 124 121 125 124 128 134 130 106 108 102 105 100 103 107
143 147 149 151 149 141 133 132 131 129 128 129 135 137 137 137 133 145 154 143 115 114 124 126 126 127 127 122 122 125 121 124 131 129 132 142 116 124 119 115 113 110 112
148 148 154 155 151 144 139 135 132 134 137 142 145 139 135 138 136 132 135 136 123 116 119 127 129 128 127 129 130 134 126 139 130 114 119 129 125 131 134 122 107 114 122
150 150 160 158 150 149 146 140 138 140 140 143 142 140 139 146 139 118 124 126 123 123 118 124 129 130 130 136 136 139 143 138 113 129 135 145 67 138 138 137 149 146 138
151 149 159 159 155 156 150 151 151 145 141 149 142 135 138 121 114 113 121 120 118 129 122 123 133 135 141 145 145 148 152 133 135 133 136 162 140 158 158 152 149 152 146
151 153 159 162 162 163 159 162 155 151 139 138 154 144 133 134 122 126 126 119 121 119 122 128 148 154 155 147 150 155 168 172 202 241 222 191 186 172 179 183 173 167 170
157 158 161 164 170 168 165 171 159 167 158 160 146 142 127 124 122 132 134 128 134 126 151 178 187 176 189 178 175 184 201 213 244 266 204 194 216 185 200 192 194 194 181
165 165 167 165 168 172 178 178 172 172 169 166 162 165 167 163 161 170 170 158 185 227 240 238 220 223 223 209 211 212 218 237 251 244 211 202 223 202 204 206 194 212 196
174 173 172 170 169 173 179 184 178 184 183 179 171 179 185 184 212 230 226 232 228 250 255 255 251 248 241 239 236 235 238 244 246 235 231 230 229 215 208 216 211 214 207
180 181 177 180 179 177 183 182 185 197 202 196 200 204 206 202 232 232 231 237 253 249 282 254 256 252 248 238 231 236 237 239 238 244 236 237 225 222 210 218 217 214 211
182 183 186 189 190 189 193 193 195 200 204 213 213 225 232 233 242 251 261 274 283 283 272 263 260 255 254 253 234 245 257 249 249 244 246 243 238 229 217 219 222 221 220
184 189 192 196 197 200 205 207 209 206 209 216 229 219 226 231 257 250 254 267 278 282 277 267 260 256 261 258 256 252 257 256 265 259 252 244 252 236 229 225 226 224 224
189 193 199 200 203 206 210 216 221 221 223 235 230 233 239 241 253 255 255 261 273 279 273 269 263 263 255 257 256 256 261 266 264 264 265 246 257 243 239 234 230 227 227
195 198 200 202 207 211 214 221 219 223 233 237 231 225 241 248 255 261 258 265 269 272 269 267 260 255 256 255 254 255 257 260 267 266 262 264 246 250 246 246 234 229 233
201 200 203 207 209 212 216 220 229 232 234 244 250 250 251 250 260 255 262 265 269 267 267 263 264 251 251 260 263 265 256 254 258 255 258 263 263 260 250 245 246 240 235
208 204 207 210 213 213 216 220 226 231 236 241 246 250 247 259 275 277 271 264 268 261 263 263 260 265 254 253 260 262 263 263 261 266 265 259 249 257 247 237 238 240 235
206 210 214 216 217 218 218 224 231 234 242 248 250 256 249 255 292 287 276 269 262 259 261 261 260 256 259 259 255 260 259 248 265 265 258 257 252 252 257 239 239 237 238
216 214 220 222 220 220 221 224 231 237 245 256 266 267 270 256 283 289 277 271 265 261 257 255 256 258 260 263 257 260 257 253 258 256 255 250 243 250 248 241 240 241 228
216 220 220 221 221 217 215 221 232 235 240 247 248 255 262 275 268 261 279 271 256 264 265 267 266 268 273 277 279 273 272 255 243 251 259 250 261 249 261 233 233 233 232
215 220 222 224 221 218 217 215 217 230 231 236 238 239 240 264 250 259 263 265 263 259 260 268 272 280 281 277 277 298 285 270 249 249 248 260 250 252 235 231 232 227 237
217 221 224 225 222 213 211 207 209 220 228 230 238 261 233 209 239 247 256 257 264 264 267 266 267 266 276 281 272 257 289 273 328 247 249 239 246 233 229 230 220 231 234
220 223 223 224 216 206 201 206 212 219 223 216 203 203 254 237 201 234 245 256 264 270 271 267 266 259 254 257 272 256 251 263 294 303 343 303 257 240 226 220 225 233 234
217 221 214 212 208 201 201 209 213 221 227 194 204 202 208 211 158 136 300 294 279 276 274 270 266 250 246 253 258 270 290 259 243 236 278 300 327 291 257 235 235 214 219
213 217 203 199 190 194 199 208 213 211 201 172 209 216 213 215 252 47 353 320 288 282 281 275 271 263 247 246 254 270 258 270 254 227 252 283 233 265 299 276 237 219 212